Terminal Aerodrome Forecast
Issued by NWS La Crosse, WI

Home | Current Version | Previous Version | Text Only | Print | Product List | Glossary On
Versions: 1 2 3 4 5 6 7 8 9 10 11 12 13 14 15 16 17 18 19 20 21 22 23 24 25 26 27 28 29 30 31 32 33 34 35 36 37 38 39 40 41 42 43 44 45 46 47 48 49 50
000
FTUS43 KARX 281125
TAFLSE
TAF
KLSE 281125Z 2812/2912 17007KT P6SM FEW200
     FM281800 18012G21KT P6SM SCT200
     FM282200 17012KT P6SM BKN200
     FM290500 15006KT P6SM BKN100
     FM291000 15007KT 4SM -TSRA BKN020CB=

USA.gov is the U.S. government's official web portal to all federal, state and local government web resources and services.